International Skating Union - Official Site

ISU World Cup Heerenveen
December 12-14, 2014

Draw | Lap Times | Index | World Cup

Referee: Daniel  CABELDUC  (SWE)
Starter: Jyrki  JÄÄSKELÄINEN  (FIN)
StartTime: EndTime: Air Temp: Ice Temp: Humidity:
16:33 16:51 14 ℃ -7.4 ℃ 29%
Result Team Pursuit Ladies
Rankings as of Dec 13 2014 5:05PM
Rank: No.: Team: Nation: Time: Behind: Points:
Total 8
1 1 Netherlands (61) Carlijn Achtereekte (78) Linda de Vries (71) Marrit Leenstra (67) Marije Joling NED NED 2:59.690.5 - 18.42 - (18.4)
1.0 - 32.46 - (14.0)
1.5 - 46.60 - (14.1)
2.0 - 1:00.75 - (14.1)
2.5 - 1:15.15 - (14.4)
3.0 - 1:29.72 - (14.5)
3.5 - 1:44.48 - (14.7)
4.0 - 1:59.48 - (15.0)
4.5 - 2:14.23 - (14.7)
5.0 - 2:29.21 - (14.9)
5.5 - 2:44.37 - (15.1)
6.0 - 2:59.69 - (15.2)
150
2 4 Germany (33) Bente Kraus (34) Isabell Ost (35) Claudia Pechstein GER GER 3:01.960.5 - 19.30 - (19.3)
1.0 - 33.47 - (14.1)
1.5 - 47.61 - (14.1)
2.0 - 1:01.84 - (14.2)
2.5 - 1:16.40 - (14.5)
3.0 - 1:31.30 - (14.8)
3.5 - 1:46.17 - (14.8)
4.0 - 2:01.12 - (14.9)
4.5 - 2:16.16 - (15.0)
5.0 - 2:31.28 - (15.1)
5.5 - 2:46.58 - (15.3)
6.0 - 3:01.96 - (15.3)
2.27 120
3 3 Poland (84) Aleksandra Goss (86) Katarzyna Wozniak (87) Luiza Zlotkowska (83) Angelika Fudalej POL POL 3:02.310.5 - 19.19 - (19.1)
1.0 - 33.72 - (14.5)
1.5 - 47.82 - (14.1)
2.0 - 1:02.22 - (14.3)
2.5 - 1:16.89 - (14.6)
3.0 - 1:31.80 - (14.9)
3.5 - 1:46.90 - (15.1)
4.0 - 2:02.18 - (15.2)
4.5 - 2:17.10 - (14.9)
5.0 - 2:32.32 - (15.2)
5.5 - 2:47.23 - (14.9)
6.0 - 3:02.31 - (15.0)
2.62 106
4 6 Russia (92) Olga Graf (95) Margarita Ryzhova (97) Natalya Voronina RUS RUS 3:03.460.5 - 19.49 - (19.4)
1.0 - 33.89 - (14.4)
1.5 - 48.29 - (14.3)
2.0 - 1:02.75 - (14.4)
2.5 - 1:17.46 - (14.7)
3.0 - 1:32.04 - (14.5)
3.5 - 1:46.73 - (14.6)
4.0 - 2:01.57 - (14.8)
4.5 - 2:16.52 - (14.9)
5.0 - 2:32.02 - (15.5)
5.5 - 2:47.78 - (15.7)
6.0 - 3:03.46 - (15.6)
3.77 90
5 2 Japan (41) Ayaka Kikuchi (46) Maki Tabata (48) Nana Takagi (44) Misaki Oshigiri JPN JPN 3:03.610.5 - 19.00 - (19.0)
1.0 - 33.46 - (14.4)
1.5 - 47.88 - (14.4)
2.0 - 1:02.18 - (14.2)
2.5 - 1:16.76 - (14.5)
3.0 - 1:31.24 - (14.4)
3.5 - 1:46.16 - (14.9)
4.0 - 2:01.04 - (14.8)
4.5 - 2:16.32 - (15.2)
5.0 - 2:31.89 - (15.5)
5.5 - 2:47.83 - (15.9)
6.0 - 3:03.61 - (15.7)
3.92 76
6 8 Korea (54) Ye Jin Jun (55) Bo-Reum Kim (58) Seon-Yeong Noh (59) Cho-Weon Park KOR KOR 3:08.330.5 - 19.75 - (19.7)
1.0 - 34.22 - (14.4)
1.5 - 48.63 - (14.4)
2.0 - 1:03.38 - (14.7)
2.5 - 1:18.58 - (15.1)
3.0 - 1:33.84 - (15.2)
3.5 - 1:49.48 - (15.6)
4.0 - 2:04.93 - (15.4)
4.5 - 2:20.61 - (15.6)
5.0 - 2:36.47 - (15.8)
5.5 - 2:52.61 - (16.1)
6.0 - 3:08.33 - (15.7)
8.64 45
7 5 Canada (7) Kate Hanly (10) Lauren McGuire (13) Josie Spence (5) Ivanie Blondin CAN CAN 3:09.160.5 - 19.64 - (19.6)
1.0 - 34.56 - (14.9)
1.5 - 49.25 - (14.6)
2.0 - 1:04.02 - (14.7)
2.5 - 1:19.20 - (15.1)
3.0 - 1:34.60 - (15.3)
3.5 - 1:50.17 - (15.5)
4.0 - 2:05.67 - (15.5)
4.5 - 2:21.48 - (15.8)
5.0 - 2:37.31 - (15.8)
5.5 - 2:53.36 - (16.0)
6.0 - 3:09.16 - (15.7)
9.47 40
8 7 China (16) Jing Liu (17) Yichi Liu (21) Xin Zhao (19) Xin Zhang CHN CHN 3:10.390.5 - 19.37 - (19.3)
1.0 - 34.49 - (15.1)
1.5 - 49.45 - (14.9)
2.0 - 1:04.74 - (15.2)
2.5 - 1:20.11 - (15.3)
3.0 - 1:35.65 - (15.5)
3.5 - 1:50.93 - (15.2)
4.0 - 2:06.68 - (15.7)
4.5 - 2:22.68 - (16.0)
5.0 - 2:38.91 - (16.2)
5.5 - 2:54.70 - (15.7)
6.0 - 3:10.39 - (15.7)
10.70 36